ARIANE 42P DEB, 44507

Orbit data source: Space-Track

ARIANE 42P DEB, 44507 is space debris in LEO originally from a launch on Mon, 10 Aug 1992 UTC launched from the French Guiana (FRGUI). Debris objects in space refer to the collection of defunct objects orbiting the Earth. Examples of debris include non-operational satellites, rocket bodies, and fragments generated from explosions, collisions, or faulty payload assembly.

Loading next visibility...
Identifier
44507, 1992-052E
Orbit
LEO
Country
Flag of FRFR
Related business
Manufacturer
ArianeGroup
Mission
Spacecraft
Bus & Motor
Unknown
Mass
Unknown
Launch date (UTC)
1992-08-10 (34 years ago)
Launch vehicle
Unknown
Launch site
French Guiana (FRGUI)
Object type
Payload
Rocket body
Debris
Shape & HBR
Unknown shape, 0.1 m
Radar Cross Section
Small (<0.1 m²)

Expand to show TLE details & history
Last TLE update: 9 hours ago

TLE from 9 hours ago
0 ARIANE 42P DEB
1 44507U 92052E   26094.18920163  .00001644  00000-0  62885-2 0  9995
2 44507  66.0072  27.2539 0160525 328.3905  30.7549 12.88616018311352
Epoch: 2026-04-04T04:32Z
TLE epoch observation values (Epoch: 2026-04-04T04:32:27.020Z)
Latitude
0.00003°
Longitude
126.62878°
Altitude
1,203.44 km
Speed
7.302 km/s
True Right ascension
01h 49m 00s
True Declination
0° 00' 00"
Sunlit
Object was in daylight at epoch
Visualization orbit readout
Latitude
Unknown
Longitude
Unknown
Altitude
Unknown
Speed
Unknown
Apparent Right ascension
Unknown
Apparent Declination
Unknown
Sunlit
N/A
Visualization observer readout
Local Sidereal Time
19:12:00
Azimuth
Unknown
Elevation
Unknown
Doppler factor
Unknown
Orbital elements
Apogee altitude
1,428.925 km
Perigee altitude
1,182.239 km
Semi-major axis
7,683.719 km
Eccentricity
0.01605
Inclination
66.0072°
RAAN
27.2539°
Arg. of periapsis
328.3905°
True anomaly
31.712°
Mean anomaly
30.7549°
Eccentric anomaly
31.23179°
Mean motion
3.22245 °/min
Orbital period
111.72 mins
BSTAR
0.0062885
Loading maneuver chart data...
Computing Atmospheric mass density...
Loading historical data...
Loading historical data...
Loading historical data...
Loading historical data...
Loading historical data...
Loading historical data...
Loading historical data...

Documentation

Showing up to 5 results
|